Peru, IL

3:17 AM CST on December 15, 2017 (GMT -0600)
Illinois Valley Regional-Duncan

Weather History for KVYS - May, 2012

Change the Weather History Date:

Monday, May 14, 2012

  Actual Average Record
Temperature  
Mean Temperature 63 °F -  
Max Temperature 80 °F 71 °F 90 °F (1991)
Min Temperature 46 °F 47 °F 32 °F (1981)
Degree Days  
Heating Degree Days 2    
Growing Degree Days 13 (Base 50)    
Moisture  
Dew Point 38 °F    
Average Humidity 41    
Maximum Humidity 71    
Minimum Humidity 20    
Precipitation  
Precipitation 0.00 in - - ()
Sea Level Pressure  
Sea Level Pressure 30.07 in    
Wind  
Wind Speed 4 mph (WSW)    
Max Wind Speed 10 mph    
Max Gust Speed 16 mph    
Visibility 10 miles    
Events      
Averages and records for this station are not official NWS values.
T = Trace of Precipitation, MM = Missing Value Source: NWS Daily Summary

Daily Weather History Graph

Daily Weather History Graph

Search for Another Location

Airport or City:

Trip Planner

Search our weather history database for the weather conditions in past years. The results will help you decide how hot, cold, wet, or windy it might be!

Date:

Astronomy

May. 14, 2012 Rise Set
Actual Time 5:38 AM CDT 8:08 PM CDT
Civil Twilight 5:06 AM CDT 8:39 PM CDT
Nautical Twilight 4:27 AM CDT 9:18 PM CDT
Astronomical Twilight 3:44 AM CDT 10:02 PM CDT
Moon 2:16 AM CDT (5/14) 2:25 PM CDT (5/14)
Length of Visible Light 15h 32m
Length of Day
14h 29m
Waning Crescent, 32% of the Moon is Illuminated
May 14
Waning Crescent
May 20
New
May 28
First Quarter
Jun 4
Full
Jun 11
Last Quarter

Hourly Weather History & Observations

Time (CDT) Temp. Windchill Dew Point Humidity Pressure Visibility Wind Dir Wind Speed Gust Speed Precip Events Conditions
12:15 AM 54.9 °F - 36.0 °F 49% 30.13 in 10.0 mi Calm Calm - N/A   Clear
12:35 AM 51.3 °F - 38.1 °F 61% 30.13 in 10.0 mi NW 10.4 mph - N/A   Clear
12:55 AM 52.2 °F - 36.0 °F 54% 30.13 in 10.0 mi Calm Calm - N/A   Clear
1:15 AM 51.4 °F - 36.7 °F 57% 30.12 in 10.0 mi Calm Calm - N/A   Clear
1:35 AM 51.3 °F - 37.0 °F 58% 30.12 in 10.0 mi Calm Calm - N/A   Clear
1:55 AM 52.9 °F - 35.4 °F 52% 30.12 in 10.0 mi Calm Calm - N/A   Clear
2:15 AM 52.7 °F - 35.8 °F 53% 30.12 in 10.0 mi North 3.5 mph - N/A   Clear
2:35 AM 51.1 °F - 36.7 °F 58% 30.12 in 10.0 mi North 3.5 mph - N/A   Clear
2:55 AM 50.7 °F - 36.0 °F 57% 30.12 in 10.0 mi North 3.5 mph - N/A   Clear
3:15 AM 50.9 °F - 35.4 °F 55% 30.11 in 10.0 mi Calm Calm - N/A   Clear
3:35 AM 49.8 °F - 35.8 °F 59% 30.11 in 10.0 mi Calm Calm - N/A   Clear
3:55 AM 49.3 °F - 35.8 °F 60% 30.11 in 10.0 mi Calm Calm - N/A   Clear
4:15 AM 49.1 °F - 36.1 °F 61% 30.11 in 10.0 mi Calm Calm - N/A   Clear
4:35 AM 46.6 °F - 37.4 °F 70% 30.11 in 10.0 mi Calm Calm - N/A   Clear
4:55 AM 48.6 °F - 37.6 °F 66% 30.11 in 10.0 mi North 3.5 mph - N/A   Clear
5:15 AM 46.4 °F 45.2 °F 37.6 °F 71% 30.11 in 10.0 mi North 3.5 mph - N/A   Clear
5:35 AM 46.0 °F 43.9 °F 37.2 °F 71% 30.11 in 10.0 mi NNW 4.6 mph - N/A   Clear
5:55 AM 46.6 °F - 37.4 °F 70% 30.11 in 10.0 mi NNW 3.5 mph - N/A   Clear
6:15 AM 46.6 °F - 37.6 °F 71% 30.12 in 10.0 mi WNW 3.5 mph - N/A   Clear
6:35 AM 49.3 °F - 36.7 °F 62% 30.12 in 10.0 mi Calm Calm - N/A   Clear
6:55 AM 49.5 °F - 38.8 °F 67% 30.12 in 10.0 mi Calm Calm - N/A   Clear
7:15 AM 51.6 °F - 42.3 °F 70% 30.12 in 10.0 mi Calm Calm - N/A   Clear
7:35 AM 54.0 °F - 40.3 °F 60% 30.12 in 10.0 mi Calm Calm - N/A   Clear
7:55 AM 57.0 °F - 41.7 °F 57% 30.13 in 10.0 mi Calm Calm - N/A   Clear
8:15 AM 59.9 °F - 42.1 °F 52% 30.13 in 10.0 mi Calm Calm - N/A   Clear
8:35 AM 61.7 °F - 43.0 °F 50% 30.13 in 10.0 mi Calm Calm - N/A   Clear
8:55 AM 64.4 °F - 41.5 °F 43% 30.13 in 10.0 mi West 4.6 mph - N/A   Clear
9:15 AM 66.7 °F - 37.8 °F 34% 30.13 in 10.0 mi West 5.8 mph - N/A   Clear
9:35 AM 68.2 °F - 36.7 °F 31% 30.13 in 10.0 mi WSW 6.9 mph - N/A   Clear
9:55 AM 68.9 °F - 36.0 °F 30% 30.13 in 10.0 mi West 8.1 mph - N/A   Clear
10:15 AM 70.0 °F - 37.0 °F 30% 30.13 in 10.0 mi West 5.8 mph - N/A   Clear
10:35 AM 71.2 °F - 37.9 °F 30% 30.12 in 10.0 mi SW 4.6 mph - N/A   Clear
10:55 AM 71.8 °F - 39.2 °F 31% 30.12 in 10.0 mi WSW 4.6 mph - N/A   Clear
11:15 AM 72.9 °F - 39.7 °F 30% 30.12 in 10.0 mi West 3.5 mph - N/A   Clear
11:35 AM 72.9 °F - 39.6 °F 30% 30.11 in 10.0 mi SSW 6.9 mph - N/A   Clear
11:55 AM 73.9 °F - 40.1 °F 29% 30.11 in 10.0 mi SSW 8.1 mph - N/A   Clear
12:15 PM 73.2 °F - 37.6 °F 27% 30.10 in 10.0 mi Calm Calm - N/A   Clear
12:35 PM 75.2 °F - 38.1 °F 26% 30.09 in 10.0 mi WNW 3.5 mph - N/A   Clear
12:55 PM 75.2 °F - 36.7 °F 25% 30.08 in 10.0 mi SSW 5.8 mph - N/A   Clear
1:15 PM 75.4 °F - 38.5 °F 26% 30.08 in 10.0 mi Calm Calm - N/A   Clear
1:35 PM 75.6 °F - 37.2 °F 25% 30.07 in 10.0 mi North 3.5 mph - N/A   Clear
1:55 PM 76.1 °F - 35.4 °F 23% 30.06 in 10.0 mi SW 4.6 mph - N/A   Clear
2:15 PM 77.0 °F - 36.0 °F 23% 30.06 in 10.0 mi NNE 5.8 mph - N/A   Clear
2:35 PM 77.9 °F - 37.6 °F 23% 30.05 in 10.0 mi WSW 6.9 mph - N/A   Clear
2:55 PM 78.1 °F - 34.9 °F 21% 30.05 in 10.0 mi SSW 4.6 mph - N/A   Clear
3:15 PM 77.9 °F - 34.2 °F 20% 30.04 in 10.0 mi WNW 3.5 mph - N/A   Clear
3:35 PM 77.9 °F - 34.9 °F 21% 30.03 in 10.0 mi NW 6.9 mph - N/A   Clear
3:55 PM 78.8 °F - 38.3 °F 23% 30.03 in 10.0 mi SW 9.2 mph - N/A   Clear
4:15 PM 80.6 °F - 39.2 °F 23% 30.02 in 10.0 mi WSW 9.2 mph 16.1 mph N/A   Clear
4:35 PM 78.1 °F - 37.2 °F 23% 30.02 in 10.0 mi SW 8.1 mph - N/A   Clear
4:55 PM 78.6 °F - 38.1 °F 23% 30.01 in 10.0 mi SW 10.4 mph 16.1 mph N/A   Clear
5:15 PM 78.8 °F - 38.5 °F 24% 30.01 in 10.0 mi WSW 5.8 mph - N/A   Clear
5:35 PM 77.9 °F - 38.1 °F 24% 30.01 in 10.0 mi WSW 8.1 mph - N/A   Clear
5:55 PM 78.8 °F - 35.6 °F 21% 30.01 in 10.0 mi WSW 6.9 mph - N/A   Clear
6:15 PM 77.7 °F - 40.6 °F 26% 30.00 in 10.0 mi WSW 9.2 mph - N/A   Clear
6:35 PM 76.3 °F - 40.3 °F 27% 30.00 in 10.0 mi West 8.1 mph - N/A   Clear
6:55 PM 75.2 °F - 40.3 °F 28% 30.00 in 10.0 mi West 9.2 mph - N/A   Clear
7:15 PM 72.9 °F - 40.1 °F 31% 30.00 in 10.0 mi WSW 8.1 mph - N/A   Clear
7:35 PM 72.1 °F - 40.1 °F 31% 30.00 in 10.0 mi West 6.9 mph - N/A   Clear
7:55 PM 71.2 °F - 38.8 °F 31% 30.00 in 10.0 mi WSW 6.9 mph - N/A   Clear
8:15 PM 67.3 °F - 39.7 °F 36% 30.00 in 10.0 mi WSW 6.9 mph - N/A   Clear
8:35 PM 66.9 °F - 39.2 °F 36% 30.00 in 10.0 mi WSW 6.9 mph - N/A   Clear
8:55 PM 66.7 °F - 41.0 °F 39% 30.01 in 10.0 mi WSW 6.9 mph - N/A   Clear
9:15 PM 66.0 °F - 38.3 °F 36% 30.01 in 10.0 mi WSW 6.9 mph - N/A   Clear
9:35 PM 66.6 °F - 39.2 °F 37% 30.01 in 10.0 mi SW 6.9 mph - N/A   Clear
9:55 PM 64.9 °F - 40.3 °F 40% 30.02 in 10.0 mi SW 6.9 mph - N/A   Clear
10:15 PM 64.9 °F - 39.7 °F 40% 30.01 in 10.0 mi SW 5.8 mph - N/A   Clear
10:35 PM 65.3 °F - 41.0 °F 41% 30.01 in 10.0 mi SW 6.9 mph - N/A   Clear
10:55 PM 64.0 °F - 41.7 °F 44% 30.01 in 10.0 mi WSW 6.9 mph - N/A   Clear
11:15 PM 64.0 °F - 41.5 °F 44% 30.01 in 10.0 mi SW 6.9 mph - N/A   Clear
11:35 PM 63.5 °F - 41.4 °F 44% 30.01 in 10.0 mi SW 5.8 mph - N/A   Clear
11:55 PM 62.6 °F - 42.3 °F 47% 30.00 in 10.0 mi SW 5.8 mph - N/A   Clear